BREEZE-KM R/B

Satellite information

Favourite Embed

Satellite Type and Status

ROCKET BODYIN ORBIT

Key statistics

Satellite BREEZE-KM R/B at a glance.

Uptime

3320

Days in orbit

Revolutions

≈ 14.3

Per day

Orbit

SSO

Sun Synchronous Orbit

Inclination

99.2

Latest

Satellite identification and parameters

Extended collection of information and parameters for BREEZE-KM R/B.

Object identification

Identified? True

Debris? False

Object name: BREEZE-KM R/B

International designator: 2016-034B

Object number (NORAD): 41580

Object ID (CCSDS): 41580

Country: COMMONWEALTH OF INDEPENDENT STATES (CIS)

Current information (Y/N): Y

RCS size: LARGE

Orbital parameters

Period: 100.996 minutes

Inclination: 99.2229 deg

SMA: 7183.956 km

Apoapsis: 957.641 km

Periapsis: 654.0 km

RAAN: 31.2123 deg

Eccentricy: 0.0211333

Argument of periapsis: 99.7661 deg

Mean anomaly: 262.7452 deg

Mean motion: 14.25795674 rev/day

Mean motion (dot): 0.00000082 rev/day2

B* drag term: 0.000044732 1/REarth

Two-line elements (TLE)

Creation date: July 6, 2025, 6:05 p.m.

Reference frame: TEME

Reference center: EARTH

Epoch: July 6, 2025, 12:19 p.m. UTC

TLE line 0: 0 BREEZE-KM R/B

TLE line 1: 1 41580U 16034B 25187.51384685 .00000082 00000-0 44732-4 0 9999

TLE line 2: 2 41580 99.2229 31.2123 0211333 99.7661 262.7452 14.25795674472726

Live tracking on map

Real-time ground track for satellite BREEZE-KM R/B.

In-orbit conjunctions

A list of the most updated potential collisions computed for object BREEZE-KM R/B.

Target Orbit TCA Probability of collision Miss distance Type
CBERS 1 DEB SSO 2025-02-20 04:45:31 0.0007426618 62.0 (m) DEBRIS
DELTA 1 DEB SSO 2025-01-05 21:09:41 0.0005585253 805.0 (m) DEBRIS
THORAD AGENA D DEB LEO 2024-11-17 19:54:22 0.000172154 222.0 (m) DEBRIS
FENGYUN 1C DEB SSO 2024-11-04 04:36:45 0.0004065526 190.0 (m) DEBRIS
FENGYUN 1C DEB SSO 2024-10-28 10:32:33 0.0002392069 167.0 (m) DEBRIS

Associated space launch

Geo-IK-2 will conduct high precision geodesic measurements to improve our understanding and models of the earth. Using GLONASS for accurate positioning data, the 1400kg satellite will operate in a 1000km polar orbit.

BREEZE-KM R/B was lifted into orbit during the mission ‘Rokot/Briz-KM | Geo-IK-2 No.12L (Kosmos 2517)’, on board a Rokot/Briz-KM space rocket.

The launch took place on June 4, 2016, 2 p.m. from 133/3 (133L).

For more information about the launch, click the button.

Launch to space Rokot/Briz-KM | Geo-IK-2 No.12L (Kosmos 2517)
Rokot/Briz-KM | Geo-IK-2 No.12L (Kosmos 2517)

Agency: N/A

Status: Launch Successful

Launch date: June 4, 2016, 2 p.m. UTC

Rocket: Rokot/Briz-KM

Launch pad: 133/3 (133L)

Location: Plesetsk Cosmodrome, Russian Federation

...

Latest news about this satellite

There are no fresh news available about this satellite. Check back as we update our databases every day.


Newsletter sign-up

Weekly statistics, charts and insights to help you stay on top of the space industry.